"Sample Date","Sample Time","Sensor Name","Sample Value","Units","Flow Rate","Sample Interval","Sample Volume","Laser Status","Number Channels","Micron Size 0","Counts/Channel 0","Micron Size 1","Counts/Channel 1","Micron Size 2","Counts/Channel 2","Micron Size 3","Counts/Channel 3","Micron Size 4","Counts/Channel 4","Micron Size 5","Counts/Channel 5","Micron Size 6","Counts/Channel 6","Micron Size 7","Counts/Channel 7","Micron Size 8","Counts/Channel 8","Micron Size 9","Counts/Channel 9","Micron Size 10","Counts/Channel 10","Micron Size 11","Counts/Channel 11","Micron Size 12","Counts/Channel 12","Micron Size 13","Counts/Channel 13","Micron Size 14","Counts/Channel 14","Micron Size 15","Counts/Channel 15","Micron Size 16","Counts/Channel 16","Micron Size 17","Counts/Channel 17","Micron Size 18","Counts/Channel 18","Micron Size 19","Counts/Channel 19","Micron Size 20","Counts/Channel 20","Micron Size 21","Counts/Channel 21","Micron Size 22","Counts/Channel 22","Micron Size 23","Counts/Channel 23","Micron Size 24","Counts/Channel 24","Micron Size 25","Counts/Channel 25","Micron Size 26","Counts/Channel 26","Micron Size 27","Counts/Channel 27","Micron Size 28","Counts/Channel 28","Micron Size 29","Counts/Channel 29","Micron Size 30","Counts/Channel 30","Micron Size 31","Counts/Channel 31"
"07/07/06","07:00:02","AMMA06",49356.000,"cc",28337.533,6.00,2833.753,1,6,0.100,23770.000,0.200,20006.000,0.300,4056.000,0.500,975.000,1.000,549.000,5.000,0
"07/07/06","07:00:08","AMMA06",47576.000,"cc",28301.260,6.00,2830.126,1,6,0.100,22539.000,0.200,19948.000,0.300,3801.000,0.500,795.000,1.000,493.000,5.000,0
"07/07/06","07:00:14","AMMA06",45887.000,"cc",28345.488,6.00,2834.549,1,6,0.100,21582.000,0.200,19468.000,0.300,3664.000,0.500,730.000,1.000,443.000,5.000,0
"07/07/06","07:00:20","AMMA06",45880.000,"cc",28318.832,6.00,2831.883,1,6,0.100,21350.000,0.200,19576.000,0.300,3799.000,0.500,678.000,1.000,477.000,5.000,0
"07/07/06","07:00:26","AMMA06",48779.000,"cc",28276.992,6.00,2827.700,1,6,0.100,22789.000,0.200,20321.000,0.300,4160.000,0.500,956.000,1.000,553.000,5.000,0
"07/07/06","07:00:32","AMMA06",47900.000,"cc",28370.014,6.00,2837.002,1,6,0.100,22196.000,0.200,19952.000,0.300,4272.000,0.500,964.000,1.000,516.000,5.000,0
"07/07/06","07:00:38","AMMA06",47598.000,"cc",28333.754,6.00,2833.376,1,6,0.100,22070.000,0.200,19781.000,0.300,4192.000,0.500,976.000,1.000,578.000,5.000,1.000
"07/07/06","07:00:44","AMMA06",48398.000,"cc",28299.604,6.00,2829.960,1,6,0.100,22518.000,0.200,20322.000,0.300,4120.000,0.500,935.000,1.000,503.000,5.000,0
"07/07/06","07:00:50","AMMA06",48712.000,"cc",28305.418,6.00,2830.542,1,6,0.100,23523.000,0.200,20053.000,0.300,3935.000,0.500,746.000,1.000,455.000,5.000,0
"07/07/06","07:00:56","AMMA06",46901.000,"cc",28311.772,6.00,2831.177,1,6,0.100,21709.000,0.200,20044.000,0.300,3855.000,0.500,779.000,1.000,514.000,5.000,0
"07/07/06","07:01:02","AMMA06",49880.000,"cc",28295.020,6.00,2829.502,1,6,0.100,22904.000,0.200,20752.000,0.300,4482.000,0.500,1105.000,1.000,637.000,5.000,0
"07/07/06","07:01:08","AMMA06",48756.000,"cc",28346.111,6.00,2834.611,1,6,0.100,23021.000,0.200,20331.000,0.300,4103.000,0.500,801.000,1.000,500.000,5.000,0
"07/07/06","07:01:14","AMMA06",45977.000,"cc",28333.113,6.00,2833.312,1,6,0.100,20965.000,0.200,19870.000,0.300,3898.000,0.500,747.000,1.000,497.000,5.000,0
"07/07/06","07:01:20","AMMA06",46671.000,"cc",28318.514,6.00,2831.852,1,6,0.100,21668.000,0.200,19576.000,0.300,4104.000,0.500,832.000,1.000,491.000,5.000,0
"07/07/06","07:01:26","AMMA06",49377.000,"cc",28334.125,6.00,2833.413,1,6,0.100,23300.000,0.200,20426.000,0.300,4280.000,0.500,878.000,1.000,493.000,5.000,0
"07/07/06","07:01:32","AMMA06",46425.000,"cc",28302.152,6.00,2830.215,1,6,0.100,21220.000,0.200,19827.000,0.300,3981.000,0.500,838.000,1.000,559.000,5.000,0
"07/07/06","07:01:38","AMMA06",48784.000,"cc",28361.445,6.00,2836.145,1,6,0.100,22436.000,0.200,20398.000,0.300,4304.000,0.500,1030.000,1.000,616.000,5.000,0
"07/07/06","07:01:44","AMMA06",46605.000,"cc",28275.908,6.00,2827.591,1,6,0.100,21427.000,0.200,19968.000,0.300,4011.000,0.500,716.000,1.000,483.000,5.000,0
"07/07/06","07:01:50","AMMA06",47283.000,"cc",28292.262,6.00,2829.226,1,6,0.100,21318.000,0.200,20165.000,0.300,4215.000,0.500,963.000,1.000,622.000,5.000,0
"07/07/06","07:01:56","AMMA06",47763.000,"cc",28266.084,6.00,2826.609,1,6,0.100,22261.000,0.200,20230.000,0.300,3998.000,0.500,754.000,1.000,520.000,5.000,0
"07/07/06","07:02:02","AMMA06",50248.000,"cc",28290.291,6.00,2829.029,1,6,0.100,22925.000,0.200,20897.000,0.300,4728.000,0.500,1102.000,1.000,596.000,5.000,0
"07/07/06","07:02:08","AMMA06",50130.000,"cc",28356.832,6.00,2835.683,1,6,0.100,22788.000,0.200,20666.000,0.300,4711.000,0.500,1266.000,1.000,699.000,5.000,0
"07/07/06","07:02:14","AMMA06",51022.000,"cc",28366.979,6.00,2836.698,1,6,0.100,23979.000,0.200,20922.000,0.300,4493.000,0.500,1022.000,1.000,606.000,5.000,0
"07/07/06","07:02:20","AMMA06",52331.000,"cc",28317.721,6.00,2831.772,1,6,0.100,26069.000,0.200,20937.000,0.300,4081.000,0.500,750.000,1.000,493.000,5.000,1.000
"07/07/06","07:02:26","AMMA06",46540.000,"cc",28275.166,6.00,2827.517,1,6,0.100,21492.000,0.200,20038.000,0.300,3873.000,0.500,683.000,1.000,454.000,5.000,0
"07/07/06","07:02:32","AMMA06",47570.000,"cc",28296.949,6.00,2829.695,1,6,0.100,22641.000,0.200,19971.000,0.300,3925.000,0.500,648.000,1.000,385.000,5.000,0
"07/07/06","07:02:38","AMMA06",52351.000,"cc",28324.688,6.00,2832.469,1,6,0.100,24262.000,0.200,21318.000,0.300,4886.000,0.500,1181.000,1.000,704.000,5.000,0
"07/07/06","07:02:44","AMMA06",49063.000,"cc",28354.711,6.00,2835.471,1,6,0.100,21993.000,0.200,20484.000,0.300,4650.000,0.500,1218.000,1.000,718.000,5.000,0
"07/07/06","07:02:50","AMMA06",68239.000,"cc",28330.316,6.00,2833.032,1,6,0.100,36762.000,0.200,24154.000,0.300,5350.000,0.500,1228.000,1.000,745.000,5.000,0
"07/07/06","07:02:56","AMMA06",85381.000,"cc",28366.861,6.00,2836.686,1,6,0.100,49758.000,0.200,27596.000,0.300,5989.000,0.500,1290.000,1.000,748.000,5.000,0
"07/07/06","07:03:02","AMMA06",76679.000,"cc",28312.135,6.00,2831.214,1,6,0.100,41718.000,0.200,26077.000,0.300,6230.000,0.500,1728.000,1.000,926.000,5.000,0
"07/07/06","07:03:08","AMMA06",77715.000,"cc",28247.016,6.00,2824.702,1,6,0.100,44308.000,0.200,25616.000,0.300,5777.000,0.500,1306.000,1.000,708.000,5.000,0
"07/07/06","07:03:14","AMMA06",74344.000,"cc",28362.084,6.00,2836.209,1,6,0.100,42128.000,0.200,25186.000,0.300,5315.000,0.500,1113.000,1.000,602.000,5.000,0
"07/07/06","07:03:20","AMMA06",54423.000,"cc",28286.563,6.00,2828.657,1,6,0.100,26054.000,0.200,21547.000,0.300,4846.000,0.500,1254.000,1.000,722.000,5.000,0
"07/07/06","07:03:26","AMMA06",48837.000,"cc",28329.287,6.00,2832.929,1,6,0.100,22966.000,0.200,20404.000,0.300,4129.000,0.500,820.000,1.000,518.000,5.000,0
"07/07/06","07:03:32","AMMA06",48923.000,"cc",28342.426,6.00,2834.243,1,6,0.100,23223.000,0.200,20218.000,0.300,4089.000,0.500,868.000,1.000,525.000,5.000,0
"07/07/06","07:03:38","AMMA06",84244.000,"cc",28308.963,6.00,2830.897,1,6,0.100,50583.000,0.200,27007.000,0.300,5137.000,0.500,926.000,1.000,591.000,5.000,0
"07/07/06","07:03:44","AMMA06",71360.000,"cc",28306.332,6.00,2830.633,1,6,0.100,40972.000,0.200,24411.000,0.300,4739.000,0.500,778.000,1.000,460.000,5.000,0
"07/07/06","07:03:50","AMMA06",59556.000,"cc",28308.486,6.00,2830.849,1,6,0.100,31871.000,0.200,22160.000,0.300,4308.000,0.500,742.000,1.000,475.000,5.000,0
"07/07/06","07:03:56","AMMA06",66341.000,"cc",28317.500,6.00,2831.750,1,6,0.100,37430.000,0.200,23364.000,0.300,4331.000,0.500,734.000,1.000,482.000,5.000,0
"07/07/06","07:04:02","AMMA06",47884.000,"cc",28287.797,6.00,2828.780,1,6,0.100,22918.000,0.200,19977.000,0.300,3754.000,0.500,797.000,1.000,438.000,5.000,0
"07/07/06","07:04:08","AMMA06",44948.000,"cc",28322.504,6.00,2832.251,1,6,0.100,21216.000,0.200,19096.000,0.300,3546.000,0.500,667.000,1.000,423.000,5.000,0
"07/07/06","07:04:14","AMMA06",46000.000,"cc",28343.584,6.00,2834.359,1,6,0.100,21541.000,0.200,19367.000,0.300,3698.000,0.500,856.000,1.000,538.000,5.000,0
"07/07/06","07:04:20","AMMA06",46971.000,"cc",28324.381,6.00,2832.438,1,6,0.100,22110.000,0.200,19597.000,0.300,3798.000,0.500,887.000,1.000,579.000,5.000,0
"07/07/06","07:04:26","AMMA06",55773.000,"cc",28271.863,6.00,2827.187,1,6,0.100,29246.000,0.200,21108.000,0.300,3937.000,0.500,913.000,1.000,569.000,5.000,0
"07/07/06","07:04:32","AMMA06",53250.000,"cc",28263.455,6.00,2826.346,1,6,0.100,27167.000,0.200,20814.000,0.300,3917.000,0.500,843.000,1.000,509.000,5.000,0
"07/07/06","07:04:38","AMMA06",51797.000,"cc",28333.965,6.00,2833.397,1,6,0.100,26101.000,0.200,20218.000,0.300,3962.000,0.500,986.000,1.000,530.000,5.000,0
"07/07/06","07:04:44","AMMA06",46085.000,"cc",28360.643,6.00,2836.065,1,6,0.100,22070.000,0.200,19119.000,0.300,3554.000,0.500,855.000,1.000,486.000,5.000,1.000
"07/07/06","07:04:50","AMMA06",47801.000,"cc",28324.756,6.00,2832.476,1,6,0.100,22482.000,0.200,19644.000,0.300,3982.000,0.500,1083.000,1.000,609.000,5.000,1.000
"07/07/06","07:04:56","AMMA06",45424.000,"cc",28323.574,6.00,2832.358,1,6,0.100,21483.000,0.200,18901.000,0.300,3691.000,0.500,865.000,1.000,484.000,5.000,0
"07/07/06","07:05:02","AMMA06",58750.000,"cc",28307.725,6.00,2830.773,1,6,0.100,31360.000,0.200,21774.000,0.300,4166.000,0.500,950.000,1.000,499.000,5.000,1.000
"07/07/06","07:05:08","AMMA06",53501.000,"cc",28312.840,6.00,2831.284,1,6,0.100,26694.000,0.200,20586.000,0.300,4403.000,0.500,1196.000,1.000,622.000,5.000,0
"07/07/06","07:05:14","AMMA06",56137.000,"cc",28318.682,6.00,2831.868,1,6,0.100,29392.000,0.200,21188.000,0.300,4167.000,0.500,906.000,1.000,484.000,5.000,0
"07/07/06","07:05:20","AMMA06",49995.000,"cc",28301.697,6.00,2830.170,1,6,0.100,25554.000,0.200,19630.000,0.300,3702.000,0.500,687.000,1.000,421.000,5.000,1.000
"07/07/06","07:05:26","AMMA06",46836.000,"cc",28330.990,6.00,2833.099,1,6,0.100,22912.000,0.200,19308.000,0.300,3577.000,0.500,630.000,1.000,409.000,5.000,0
"07/07/06","07:05:32","AMMA06",48577.000,"cc",28331.988,6.00,2833.199,1,6,0.100,22912.000,0.200,19550.000,0.300,4166.000,0.500,1253.000,1.000,695.000,5.000,1.000
"07/07/06","07:05:38","AMMA06",49669.000,"cc",28357.783,6.00,2835.779,1,6,0.100,24507.000,0.200,19917.000,0.300,3785.000,0.500,899.000,1.000,561.000,5.000,0
"07/07/06","07:05:44","AMMA06",51056.000,"cc",28320.254,6.00,2832.026,1,6,0.100,25332.000,0.200,20150.000,0.300,3945.000,0.500,1005.000,1.000,624.000,5.000,0
"07/07/06","07:05:50","AMMA06",54604.000,"cc",28326.512,6.00,2832.651,1,6,0.100,28361.000,0.200,20738.000,0.300,4071.000,0.500,933.000,1.000,501.000,5.000,0
"07/07/06","07:05:56","AMMA06",49498.000,"cc",28292.387,6.00,2829.239,1,6,0.100,24512.000,0.200,19758.000,0.300,3830.000,0.500,858.000,1.000,540.000,5.000,0
"07/07/06","07:06:02","AMMA06",46892.000,"cc",28314.588,6.00,2831.459,1,6,0.100,22228.000,0.200,19451.000,0.300,3791.000,0.500,905.000,1.000,517.000,5.000,0
"07/07/06","07:06:08","AMMA06",44352.000,"cc",28274.180,6.00,2827.418,1,6,0.100,20986.000,0.200,19023.000,0.300,3269.000,0.500,663.000,1.000,411.000,5.000,0
"07/07/06","07:06:14","AMMA06",52058.000,"cc",28324.975,6.00,2832.498,1,6,0.100,24171.000,0.200,20637.000,0.300,4806.000,0.500,1642.000,1.000,802.000,5.000,0
"07/07/06","07:06:20","AMMA06",48615.000,"cc",28354.873,6.00,2835.488,1,6,0.100,23383.000,0.200,19604.000,0.300,3988.000,0.500,1042.000,1.000,598.000,5.000,0
"07/07/06","07:06:26","AMMA06",64540.000,"cc",28329.998,6.00,2833.000,1,6,0.100,36047.000,0.200,22858.000,0.300,4268.000,0.500,863.000,1.000,504.000,5.000,0
"07/07/06","07:06:32","AMMA06",55566.000,"cc",28310.244,6.00,2831.025,1,6,0.100,29486.000,0.200,21045.000,0.300,3912.000,0.500,679.000,1.000,443.000,5.000,1.000
"07/07/06","07:06:38","AMMA06",48191.000,"cc",28315.279,6.00,2831.528,1,6,0.100,23202.000,0.200,19786.000,0.300,3816.000,0.500,880.000,1.000,507.000,5.000,0
"07/07/06","07:06:44","AMMA06",49571.000,"cc",28311.053,6.00,2831.106,1,6,0.100,23276.000,0.200,19855.000,0.300,4417.000,0.500,1321.000,1.000,702.000,5.000,0
"07/07/06","07:06:50","AMMA06",66924.000,"cc",28266.725,6.00,2826.673,1,6,0.100,35833.000,0.200,23210.000,0.300,5320.000,0.500,1637.000,1.000,923.000,5.000,1.000
"07/07/06","07:06:56","AMMA06",93106.000,"cc",28353.277,6.00,2835.328,1,6,0.100,56545.000,0.200,29045.000,0.300,5624.000,0.500,1197.000,1.000,695.000,5.000,0
"07/07/06","07:07:02","AMMA06",54715.000,"cc",28282.553,6.00,2828.255,1,6,0.100,28009.000,0.200,20865.000,0.300,4256.000,0.500,1031.000,1.000,554.000,5.000,0
"07/07/06","07:07:08","AMMA06",52444.000,"cc",28324.137,6.00,2832.414,1,6,0.100,25095.000,0.200,20676.000,0.300,4594.000,0.500,1315.000,1.000,764.000,5.000,0
"07/07/06","07:07:14","AMMA06",51051.000,"cc",28340.389,6.00,2834.039,1,6,0.100,24593.000,0.200,20421.000,0.300,4140.000,0.500,1170.000,1.000,727.000,5.000,0
"07/07/06","07:07:20","AMMA06",52420.000,"cc",28311.557,6.00,2831.156,1,6,0.100,25429.000,0.200,20677.000,0.300,4460.000,0.500,1206.000,1.000,648.000,5.000,0
"07/07/06","07:07:26","AMMA06",63336.000,"cc",28269.574,6.00,2826.958,1,6,0.100,34870.000,0.200,22525.000,0.300,4412.000,0.500,946.000,1.000,583.000,5.000,0
"07/07/06","07:07:32","AMMA06",59049.000,"cc",28331.268,6.00,2833.127,1,6,0.100,29840.000,0.200,22057.000,0.300,5055.000,0.500,1380.000,1.000,717.000,5.000,0
"07/07/06","07:07:38","AMMA06",56263.000,"cc",28293.016,6.00,2829.302,1,6,0.100,26370.000,0.200,21425.000,0.300,5444.000,0.500,2015.000,1.000,1009.000,5.000,0
"07/07/06","07:07:44","AMMA06",54530.000,"cc",28312.106,6.00,2831.211,1,6,0.100,27233.000,0.200,21216.000,0.300,4332.000,0.500,1151.000,1.000,598.000,5.000,0
"07/07/06","07:07:50","AMMA06",48901.000,"cc",28359.867,6.00,2835.987,1,6,0.100,22783.000,0.200,19907.000,0.300,4396.000,0.500,1168.000,1.000,647.000,5.000,0
"07/07/06","07:07:56","AMMA06",50233.000,"cc",28332.621,6.00,2833.262,1,6,0.100,23048.000,0.200,20308.000,0.300,4705.000,0.500,1397.000,1.000,775.000,5.000,0
"07/07/06","07:08:02","AMMA06",52527.000,"cc",28367.682,6.00,2836.768,1,6,0.100,24792.000,0.200,20792.000,0.300,4700.000,0.500,1431.000,1.000,812.000,5.000,0
"07/07/06","07:08:08","AMMA06",52154.000,"cc",28274.041,6.00,2827.404,1,6,0.100,25146.000,0.200,20810.000,0.300,4365.000,0.500,1183.000,1.000,650.000,5.000,0
"07/07/06","07:08:14","AMMA06",53293.000,"cc",28312.969,6.00,2831.297,1,6,0.100,26964.000,0.200,20992.000,0.300,3931.000,0.500,896.000,1.000,509.000,5.000,1.000
"07/07/06","07:08:20","AMMA06",45855.000,"cc",28298.893,6.00,2829.889,1,6,0.100,21577.000,0.200,19571.000,0.300,3585.000,0.500,708.000,1.000,414.000,5.000,0
"07/07/06","07:08:26","AMMA06",49823.000,"cc",28356.951,6.00,2835.695,1,6,0.100,24293.000,0.200,20167.000,0.300,4001.000,0.500,868.000,1.000,494.000,5.000,0
"07/07/06","07:08:32","AMMA06",57204.000,"cc",28303.514,6.00,2830.352,1,6,0.100,27890.000,0.200,21711.000,0.300,5277.000,0.500,1501.000,1.000,825.000,5.000,0
"07/07/06","07:08:38","AMMA06",71207.000,"cc",28321.229,6.00,2832.123,1,6,0.100,40577.000,0.200,24124.000,0.300,4788.000,0.500,1089.000,1.000,629.000,5.000,0
"07/07/06","07:08:44","AMMA06",51488.000,"cc",28289.889,6.00,2828.989,1,6,0.100,25833.000,0.200,20277.000,0.300,3989.000,0.500,920.000,1.000,468.000,5.000,1.000
"07/07/06","07:08:50","AMMA06",47486.000,"cc",28227.109,6.00,2822.711,1,6,0.100,22485.000,0.200,19652.000,0.300,3974.000,0.500,883.000,1.000,492.000,5.000,0
"07/07/06","07:08:56","AMMA06",46592.000,"cc",28352.051,6.00,2835.205,1,6,0.100,21789.000,0.200,19529.000,0.300,3913.000,0.500,912.000,1.000,449.000,5.000,0
"07/07/06","07:09:02","AMMA06",48687.000,"cc",28329.199,6.00,2832.920,1,6,0.100,22300.000,0.200,20330.000,0.300,4294.000,0.500,1154.000,1.000,609.000,5.000,0
"07/07/06","07:09:08","AMMA06",47742.000,"cc",28338.578,6.00,2833.858,1,6,0.100,22343.000,0.200,19902.000,0.300,3926.000,0.500,994.000,1.000,577.000,5.000,0
"07/07/06","07:09:14","AMMA06",46267.000,"cc",28314.141,6.00,2831.414,1,6,0.100,21748.000,0.200,19481.000,0.300,3735.000,0.500,846.000,1.000,456.000,5.000,1.000
"07/07/06","07:09:20","AMMA06",45811.000,"cc",28295.248,6.00,2829.525,1,6,0.100,21336.000,0.200,19471.000,0.300,3705.000,0.500,809.000,1.000,490.000,5.000,0
"07/07/06","07:09:26","AMMA06",60478.000,"cc",28320.023,6.00,2832.002,1,6,0.100,32538.000,0.200,22158.000,0.300,4292.000,0.500,972.000,1.000,518.000,5.000,0
"07/07/06","07:09:32","AMMA06",47357.000,"cc",28310.264,6.00,2831.027,1,6,0.100,23039.000,0.200,19721.000,0.300,3469.000,0.500,740.000,1.000,388.000,5.000,0
"07/07/06","07:09:38","AMMA06",47418.000,"cc",28326.709,6.00,2832.671,1,6,0.100,22992.000,0.200,19576.000,0.300,3695.000,0.500,731.000,1.000,423.000,5.000,1.000
"07/07/06","07:09:44","AMMA06",54730.000,"cc",28285.818,6.00,2828.582,1,6,0.100,28834.000,0.200,20831.000,0.300,3867.000,0.500,737.000,1.000,461.000,5.000,0
"07/07/06","07:09:50","AMMA06",45061.000,"cc",28303.924,6.00,2830.393,1,6,0.100,21513.000,0.200,18983.000,0.300,3462.000,0.500,707.000,1.000,395.000,5.000,1.000
"07/07/06","07:09:56","AMMA06",52352.000,"cc",28319.701,6.00,2831.970,1,6,0.100,26683.000,0.200,20353.000,0.300,3966.000,0.500,860.000,1.000,490.000,5.000,0
"07/07/06","07:10:02","AMMA06",47681.000,"cc",28323.750,6.00,2832.375,1,6,0.100,23181.000,0.200,19566.000,0.300,3660.000,0.500,805.000,1.000,469.000,5.000,0
"07/07/06","07:10:08","AMMA06",44778.000,"cc",28326.891,6.00,2832.689,1,6,0.100,21360.000,0.200,19069.000,0.300,3345.000,0.500,623.000,1.000,380.000,5.000,1.000
"07/07/06","07:10:14","AMMA06",45458.000,"cc",28330.449,6.00,2833.045,1,6,0.100,22107.000,0.200,18996.000,0.300,3389.000,0.500,609.000,1.000,357.000,5.000,0
"07/07/06","07:10:20","AMMA06",50366.000,"cc",28325.889,6.00,2832.589,1,6,0.100,25643.000,0.200,20124.000,0.300,3506.000,0.500,695.000,1.000,398.000,5.000,0
"07/07/06","07:10:26","AMMA06",51295.000,"cc",28292.266,6.00,2829.227,1,6,0.100,26011.000,0.200,20339.000,0.300,3690.000,0.500,779.000,1.000,476.000,5.000,0
"07/07/06","07:10:32","AMMA06",48896.000,"cc",28298.856,6.00,2829.886,1,6,0.100,23528.000,0.200,19705.000,0.300,4035.000,0.500,1054.000,1.000,574.000,5.000,0
"07/07/06","07:10:38","AMMA06",47564.000,"cc",28342.264,6.00,2834.227,1,6,0.100,23479.000,0.200,19351.000,0.300,3550.000,0.500,734.000,1.000,450.000,5.000,0
"07/07/06","07:10:44","AMMA06",49192.000,"cc",28340.592,6.00,2834.059,1,6,0.100,23697.000,0.200,19802.000,0.300,4054.000,0.500,1052.000,1.000,587.000,5.000,0
"07/07/06","07:10:50","AMMA06",58293.000,"cc",28307.680,6.00,2830.768,1,6,0.100,30535.000,0.200,21742.000,0.300,4291.000,0.500,1119.000,1.000,606.000,5.000,0
"07/07/06","07:10:56","AMMA06",64497.000,"cc",28281.354,6.00,2828.136,1,6,0.100,36432.000,0.200,22608.000,0.300,4144.000,0.500,838.000,1.000,475.000,5.000,0
"07/07/06","07:11:02","AMMA06",50121.000,"cc",28287.484,6.00,2828.749,1,6,0.100,25481.000,0.200,19873.000,0.300,3599.000,0.500,743.000,1.000,425.000,5.000,0
"07/07/06","07:11:08","AMMA06",47403.000,"cc",28308.541,6.00,2830.854,1,6,0.100,23419.000,0.200,19548.000,0.300,3481.000,0.500,604.000,1.000,351.000,5.000,0
"07/07/06","07:11:14","AMMA06",48222.000,"cc",28335.244,6.00,2833.525,1,6,0.100,23444.000,0.200,19710.000,0.300,3829.000,0.500,811.000,1.000,428.000,5.000,0
"07/07/06","07:11:20","AMMA06",47142.000,"cc",28337.113,6.00,2833.711,1,6,0.100,22722.000,0.200,19463.000,0.300,3740.000,0.500,777.000,1.000,440.000,5.000,0
"07/07/06","07:11:26","AMMA06",44702.000,"cc",28310.506,6.00,2831.051,1,6,0.100,21246.000,0.200,19004.000,0.300,3420.000,0.500,651.000,1.000,381.000,5.000,0
"07/07/06","07:11:32","AMMA06",51138.000,"cc",28337.652,6.00,2833.765,1,6,0.100,25115.000,0.200,20539.000,0.300,4035.000,0.500,916.000,1.000,533.000,5.000,0
"07/07/06","07:11:38","AMMA06",51626.000,"cc",28300.342,6.00,2830.034,1,6,0.100,24586.000,0.200,20464.000,0.300,4570.000,0.500,1313.000,1.000,693.000,5.000,0
"07/07/06","07:11:44","AMMA06",49786.000,"cc",28333.936,6.00,2833.394,1,6,0.100,24160.000,0.200,20318.000,0.300,3951.000,0.500,848.000,1.000,509.000,5.000,0
"07/07/06","07:11:50","AMMA06",46495.000,"cc",28274.928,6.00,2827.493,1,6,0.100,22671.000,0.200,19265.000,0.300,3513.000,0.500,627.000,1.000,419.000,5.000,0
"07/07/06","07:11:56","AMMA06",66700.000,"cc",28294.398,6.00,2829.440,1,6,0.100,37270.000,0.200,23653.000,0.300,4364.000,0.500,892.000,1.000,521.000,5.000,0
"07/07/06","07:12:02","AMMA06",51409.000,"cc",28325.856,6.00,2832.586,1,6,0.100,26012.000,0.200,20450.000,0.300,3765.000,0.500,759.000,1.000,423.000,5.000,0
"07/07/06","07:12:08","AMMA06",46150.000,"cc",28311.676,6.00,2831.168,1,6,0.100,21481.000,0.200,19608.000,0.300,3779.000,0.500,790.000,1.000,492.000,5.000,0
"07/07/06","07:12:14","AMMA06",51794.000,"cc",28320.088,6.00,2832.009,1,6,0.100,25750.000,0.200,20957.000,0.300,3875.000,0.500,753.000,1.000,459.000,5.000,0
"07/07/06","07:12:20","AMMA06",45992.000,"cc",28333.652,6.00,2833.366,1,6,0.100,21813.000,0.200,19543.000,0.300,3611.000,0.500,649.000,1.000,376.000,5.000,0
"07/07/06","07:12:26","AMMA06",58350.000,"cc",28318.455,6.00,2831.846,1,6,0.100,29718.000,0.200,22167.000,0.300,4659.000,0.500,1180.000,1.000,626.000,5.000,0
"07/07/06","07:12:32","AMMA06",91368.000,"cc",28307.451,6.00,2830.745,1,6,0.100,55596.000,0.200,28758.000,0.300,5502.000,0.500,943.000,1.000,569.000,5.000,0
"07/07/06","07:12:38","AMMA06",47951.000,"cc",28287.877,6.00,2828.788,1,6,0.100,23047.000,0.200,19953.000,0.300,3763.000,0.500,753.000,1.000,435.000,5.000,0
"07/07/06","07:12:44","AMMA06",49287.000,"cc",28334.041,6.00,2833.404,1,6,0.100,23994.000,0.200,20213.000,0.300,3834.000,0.500,793.000,1.000,453.000,5.000,0
"07/07/06","07:12:50","AMMA06",48243.000,"cc",28274.061,6.00,2827.406,1,6,0.100,22305.000,0.200,20274.000,0.300,4112.000,0.500,1040.000,1.000,512.000,5.000,0
"07/07/06","07:12:56","AMMA06",51089.000,"cc",28348.715,6.00,2834.872,1,6,0.100,23796.000,0.200,20749.000,0.300,4588.000,0.500,1274.000,1.000,682.000,5.000,0
"07/07/06","07:13:02","AMMA06",50537.000,"cc",28325.857,6.00,2832.586,1,6,0.100,24051.000,0.200,20410.000,0.300,4332.000,0.500,1136.000,1.000,608.000,5.000,0
"07/07/06","07:13:08","AMMA06",51329.000,"cc",28290.727,6.00,2829.073,1,6,0.100,25159.000,0.200,20718.000,0.300,4077.000,0.500,884.000,1.000,491.000,5.000,0
"07/07/06","07:13:14","AMMA06",48108.000,"cc",28331.647,6.00,2833.165,1,6,0.100,23009.000,0.200,20047.000,0.300,3800.000,0.500,774.000,1.000,478.000,5.000,0
"07/07/06","07:13:20","AMMA06",48859.000,"cc",28376.773,6.00,2837.678,1,6,0.100,22856.000,0.200,20439.000,0.300,4123.000,0.500,935.000,1.000,506.000,5.000,0
"07/07/06","07:13:26","AMMA06",51470.000,"cc",28271.943,6.00,2827.195,1,6,0.100,25409.000,0.200,20856.000,0.300,4006.000,0.500,721.000,1.000,478.000,5.000,0
"07/07/06","07:13:32","AMMA06",49100.000,"cc",28291.797,6.00,2829.180,1,6,0.100,23617.000,0.200,20324.000,0.300,3939.000,0.500,763.000,1.000,457.000,5.000,0
"07/07/06","07:13:38","AMMA06",45662.000,"cc",28311.180,6.00,2831.118,1,6,0.100,20913.000,0.200,19632.000,0.300,3885.000,0.500,778.000,1.000,454.000,5.000,0
"07/07/06","07:13:44","AMMA06",48157.000,"cc",28309.346,6.00,2830.935,1,6,0.100,22932.000,0.200,20172.000,0.300,3858.000,0.500,740.000,1.000,454.000,5.000,1.000
"07/07/06","07:13:50","AMMA06",45571.000,"cc",28347.227,6.00,2834.723,1,6,0.100,21187.000,0.200,19859.000,0.300,3591.000,0.500,561.000,1.000,373.000,5.000,0
"07/07/06","07:13:56","AMMA06",47294.000,"cc",28331.010,6.00,2833.101,1,6,0.100,21480.000,0.200,20074.000,0.300,4231.000,0.500,977.000,1.000,532.000,5.000,0
"07/07/06","07:14:02","AMMA06",45854.000,"cc",28326.475,6.00,2832.648,1,6,0.100,20766.000,0.200,20054.000,0.300,3826.000,0.500,774.000,1.000,434.000,5.000,0
"07/07/06","07:14:08","AMMA06",49765.000,"cc",28351.998,6.00,2835.200,1,6,0.100,23854.000,0.200,20773.000,0.300,3925.000,0.500,756.000,1.000,457.000,5.000,0